Tracking 28309 objects as of 1-Dec-2023
HD Live streaming from Space Station
objects crossing your sky now

DSAT

Track DSAT now!
10-day predictions
DSAT is classified as:


NORAD ID: 42794
Int'l Code: 2017-036AF
Perigee: 502.3 km
Apogee: 660.9 km
Inclination: 97.5 °
Period: 96.2 minutes
Semi major axis: 6952 km
RCS: Unknown
Launch date: June 23, 2017
Source: Italy (IT)
Launch site: SRIHARIKOTA (SRI)

Uplink (MHz):
Downlink (MHz): 437.505
Beacon (MHz): 437.505
Mode: 4800bps GMSK CW
Call sign: U1-DSAT-U1
Status: Inactive

Your satellite tracking list
Your tracking list is empty




NASA's NSSDC Master Catalog

Two Line Element Set (TLE):
1 42794U 17036AF  23333.95487022  .00006872  00000-0  51943-3 0  9992
2 42794  97.4787 318.6259 0114096 103.4028 257.9943 14.97546160350755
Source of the keplerian elements: AMSAT